Simultaneous Nadir Overpasses (SNOs) Predictions

Prediction of SNOs between FY3D and AQUA Satellite Orbit:

Table of predicted SNOs for the next 14.0 days since TLE Epoch: 9/5/2025
Index Date (FY3D) Time (FY3D) Lat,Lon (FY3D) SZA (FY3D ) Date (AQUA) Time (AQUA) Lat,Lon (AQUA) SZA (AQUA ) Distance(km) Time Diff (sec)
1 09/06/2025 03:24:08 79.52, 119.47 73.23 09/06/2025 03:24:45 79.52, 119.46 73.22 0.12 37
2 09/06/2025 04:14:46 -79.33, -71.60 106.99 09/06/2025 04:13:57 -79.33, -71.52 106.99 1.70 49
3 09/08/2025 12:54:49 79.50, -23.00 74.10 09/08/2025 12:55:23 79.51, -23.05 74.10 0.98 34
4 09/08/2025 13:45:26 -79.28, 146.22 106.16 09/08/2025 13:44:34 -79.28, 146.24 106.16 0.72 52
5 09/10/2025 22:25:29 79.46,-165.24 74.95 09/10/2025 22:25:59 79.46,-165.33 74.95 1.81 30
6 09/10/2025 23:16:07 -79.27, 3.73 105.28 09/10/2025 23:15:11 -79.27, 3.71 105.27 0.28 56
7 09/13/2025 07:56:09 79.46, 52.21 75.85 09/13/2025 07:56:34 79.46, 52.10 75.85 2.44 25
8 09/13/2025 08:46:46 -79.23,-138.54 104.42 09/13/2025 08:45:45 -79.23,-138.59 104.41 1.11 61
9 09/15/2025 17:26:49 79.42, -90.10 76.72 09/15/2025 17:27:08 79.43, -90.24 76.73 2.96 19
10 09/15/2025 18:17:26 -79.19, 79.16 103.55 09/15/2025 18:16:19 -79.19, 79.08 103.54 1.81 67
11 09/18/2025 02:57:33 79.52, 126.43 77.75 09/18/2025 02:57:44 79.51, 126.58 77.74 3.11 11



Historial Predications of SNOs between FY3D and AQUA
